Regional Weather Roundup
Issued by NWS

Home | Current Version | Previous Version | Graphics & Text | Print | Product List | Glossary On
Versions: 1 2 3 4 5 6 7 8 9 10 11 12 13 14 15 16 17 18 19 20 21 22 23 24 25 26 27 28 29 30 31 32 33 34 35 36 37 38 39 40 41 42 43 44 45 46 47 48 49 50
641
ASUS45 KBOI 150510
RWRID

IDAHO REGIONAL WEATHER ROUNDUP
NATIONAL WEATHER SERVICE BOISE ID
1000 PM MST THU DEC 14 2017

NOTE: "FAIR" INDICATES FEW OR NO CLOUDS BELOW 12000 FEET
WITH NO SIGNIFICANT WEATHER AND/OR OBSTRUCTIONS TO VISIBILITY

IDZ012-014-150600-
SOUTHWEST IDAHO


CITY           SKY/WX    TMP DP  RH WIND       PRES   REMARKS
BOISE          CLOUDY    27  24  89 SE6       30.46F WCI  20
CALDWELL       CLOUDY    28  25  88 SE3       30.49F
MOUNTAIN HOME  CLOUDY    27  27 100 E7        30.46F FOG     WCI  19
$$

IDZ016-017-150600-
SOUTHCENTRAL IDAHO


CITY           SKY/WX    TMP DP  RH WIND       PRES   REMARKS
BURLEY         FOG       25  22  88 CALM      30.39F VSB 1/2
JEROME         HAZE      28  23  81 E5        30.42S VSB 1/4 WCI  23
TWIN FALLS     FOG       24  23  96 CALM      30.41S VSB 1/4
$$

IDZ019>023-150600-
SOUTHEAST IDAHO


CITY           SKY/WX    TMP DP  RH WIND       PRES   REMARKS
IDAHO FALLS    FOG       20  19  96 N7        30.43R VSB 3/4 WCI  11
POCATELLO      FOG       23  21  92 NE7       30.43R VSB 1/2 WCI  15
REXBURG        FOG       17  15  92 NE6       30.39R VSB 1   WCI   9
$$

IDZ006-010-011-018-031-032-150600-
CENTRAL IDAHO MOUNTAINS


CITY           SKY/WX    TMP DP  RH WIND       PRES   REMARKS
MCCALL         MOCLDY    16  13  88 CALM      30.32F FOG
HAILEY         CLEAR     25  21  86 NW7       30.37S WCI  17
STANLEY          N/A     10   6  84 CALM      30.38F
SALMON         CLOUDY    29  25  85 CALM      30.42S
CHALLIS        CLOUDY    27  23  85 S3        30.38F
$$

IDZ002-004-006-007-026-150600-
NORTHERN IDAHO


CITY           SKY/WX    TMP DP  RH WIND       PRES   REMARKS
LEWISTON       PTCLDY    30  26  85 CALM      30.39F
LOWELL           N/A     32  31  96 CALM      30.43F
COEUR D`ALENE  CLOUDY    31  27  85 CALM      30.36F
MULLAN PASS    MOCLDY    25  22  88 S8        30.20F WCI  16
$$




USA.gov is the U.S. government's official web portal to all federal, state and local government web resources and services.